Blossom, TX

6:01 PM CDT on August 27, 2016 (GMT -0500)
Cox

Weather History for KPRX - March, 2013

Change the Weather History Date:

Wednesday, March 13, 2013

  Actual Average Record
Temperature  
Mean Temperature 52 °F -  
Max Temperature 64 °F 61 °F 78 °F (2012)
Min Temperature 39 °F 42 °F 33 °F (2014)
Degree Days  
Heating Degree Days 14    
Growing Degree Days 2 (Base 50)    
Moisture  
Dew Point 28 °F    
Average Humidity 39    
Maximum Humidity 66    
Minimum Humidity 25    
Precipitation  
Precipitation 0.00 in - - ()
Sea Level Pressure  
Sea Level Pressure 30.40 in    
Wind  
Wind Speed 7 mph (East)    
Max Wind Speed 12 mph    
Max Gust Speed -    
Visibility 10 miles    
Events      
Averages and records for this station are not official NWS values.
T = Trace of Precipitation, MM = Missing Value Source: NWS Daily Summary

Daily Weather History Graph

Daily Weather History Graph

Search for Another Location

Airport or City:

Trip Planner

Search our weather history database for the weather conditions in past years. The results will help you decide how hot, cold, wet, or windy it might be!

Date:

Astronomy

Mar. 13, 2013 Rise Set
Actual Time 7:34 AM CDT 7:28 PM CDT
Civil Twilight 7:09 AM CDT 7:53 PM CDT
Nautical Twilight 6:40 AM CDT 8:22 PM CDT
Astronomical Twilight 6:11 AM CDT 8:51 PM CDT
Moon 8:22 AM CDT (3/13) 9:36 PM CDT (3/13)
Length of Visible Light 12h 43m
Length of Day
11h 53m
Waxing Crescent, 4% of the Moon is Illuminated
Mar 13
Waxing Crescent
Mar 19
First Quarter
Mar 27
Full
Apr 2
Last Quarter
Apr 10
New

Hourly Weather History & Observations

Time (CDT) Temp. Windchill Dew Point Humidity Pressure Visibility Wind Dir Wind Speed Gust Speed Precip Events Conditions
1:15 AM 48.2 °F - 35.6 °F 62% 30.33 in 10.0 mi North 10.4 mph - N/A   Clear
1:35 AM 48.2 °F - 35.6 °F 62% 30.34 in 10.0 mi North 11.5 mph - N/A   Clear
1:55 AM 48.2 °F - 35.6 °F 62% 30.35 in 10.0 mi North 10.4 mph - N/A   Clear
2:35 AM 44.6 °F 39.7 °F 33.8 °F 66% 30.36 in 10.0 mi North 9.2 mph - N/A   Clear
4:55 AM 42.8 °F 38.6 °F 30.2 °F 61% 30.37 in 10.0 mi NNE 6.9 mph - N/A   Clear
5:15 AM 41.0 °F 36.4 °F 30.2 °F 65% 30.37 in 10.0 mi NNE 6.9 mph - N/A   Clear
5:35 AM 41.0 °F 37.1 °F 30.2 °F 65% 30.38 in 10.0 mi NE 5.8 mph - N/A   Clear
5:55 AM 42.8 °F 41.1 °F 30.2 °F 61% 30.38 in 10.0 mi ENE 3.5 mph - N/A   Clear
7:15 AM 39.2 °F 32.5 °F 28.4 °F 65% 30.41 in 10.0 mi NE 10.4 mph - N/A   Clear
7:35 AM 39.2 °F 33.6 °F 28.4 °F 65% 30.42 in 10.0 mi NE 8.1 mph - N/A   Clear
9:35 AM 48.2 °F - 24.8 °F 40% 30.46 in 10.0 mi ENE 11.5 mph - N/A   Clear
9:55 AM 50.0 °F - 24.8 °F 37% 30.46 in 10.0 mi East 10.4 mph - N/A   Clear
10:15 AM 51.8 °F - 24.8 °F 35% 30.48 in 10.0 mi ENE 8.1 mph - N/A   Clear
10:35 AM 51.8 °F - 23.0 °F 33% 30.49 in 10.0 mi East 5.8 mph - N/A   Clear
10:55 AM 51.8 °F - 24.8 °F 35% 30.49 in 10.0 mi NE 5.8 mph - N/A   Clear
11:15 AM 53.6 °F - 24.8 °F 33% 30.49 in 10.0 mi NE 8.1 mph - N/A   Clear
11:35 AM 53.6 °F - 24.8 °F 33% 30.50 in 10.0 mi NE 5.8 mph - N/A   Clear
11:55 AM 55.4 °F - 24.8 °F 31% 30.49 in 10.0 mi ENE 4.6 mph - N/A   Clear
12:15 PM 55.4 °F - 24.8 °F 31% 30.49 in 10.0 mi NE 5.8 mph - N/A   Clear
1:15 PM 59.0 °F - 26.6 °F 29% 30.47 in 10.0 mi NNE 5.8 mph - N/A   Clear
1:35 PM 60.8 °F - 26.6 °F 27% 30.46 in 10.0 mi West 6.9 mph - N/A   Clear
1:55 PM 60.8 °F - 26.6 °F 27% 30.45 in 10.0 mi East 3.5 mph - N/A   Clear
2:15 PM 60.8 °F - 26.6 °F 27% 30.44 in 10.0 mi NNE 5.8 mph - N/A   Clear
2:35 PM 60.8 °F - 26.6 °F 27% 30.43 in 10.0 mi Calm Calm - N/A   Clear
2:55 PM 60.8 °F - 24.8 °F 25% 30.42 in 10.0 mi Calm Calm - N/A   Clear
3:15 PM 62.6 °F - 26.6 °F 26% 30.42 in 9.0 mi East 3.5 mph - N/A   Clear
3:35 PM 62.6 °F - 26.6 °F 26% 30.41 in 10.0 mi ENE 4.6 mph - N/A   Clear
3:55 PM 62.6 °F - 26.6 °F 26% 30.41 in 8.0 mi East 3.5 mph - N/A   Clear
4:15 PM 62.6 °F - 28.4 °F 27% 30.40 in 8.0 mi Calm Calm - N/A   Clear
4:35 PM 62.6 °F - 28.4 °F 27% 30.40 in 10.0 mi Calm Calm - N/A   Clear
4:55 PM 64.4 °F - 28.4 °F 26% 30.39 in 10.0 mi South 4.6 mph - N/A   Clear
5:15 PM 62.6 °F - 26.6 °F 26% 30.38 in 10.0 mi Calm Calm - N/A   Clear
5:35 PM 64.4 °F - 28.4 °F 26% 30.38 in 10.0 mi SW 4.6 mph - N/A   Clear
5:55 PM 64.4 °F - 28.4 °F 26% 30.37 in 10.0 mi South 4.6 mph - N/A   Clear
6:15 PM 62.6 °F - 26.6 °F 26% 30.37 in 10.0 mi Calm Calm - N/A   Clear
6:35 PM 62.6 °F - 26.6 °F 26% 30.37 in 10.0 mi Calm Calm - N/A   Clear
6:55 PM 62.6 °F - 28.4 °F 27% 30.37 in 10.0 mi Calm Calm - N/A   Clear
7:15 PM 60.8 °F - 30.2 °F 31% 30.37 in 10.0 mi SE 4.6 mph - N/A   Clear
7:35 PM 57.2 °F - 30.2 °F 36% 30.37 in 8.0 mi SE 5.8 mph - N/A   Clear
7:55 PM 57.2 °F - 30.2 °F 36% 30.37 in 10.0 mi SE 6.9 mph - N/A   Clear
8:15 PM 55.4 °F - 28.4 °F 36% 30.37 in 10.0 mi SSE 4.6 mph - N/A   Clear
8:35 PM 55.4 °F - 28.4 °F 36% 30.37 in 10.0 mi SE 5.8 mph - N/A   Clear
8:55 PM 55.4 °F - 30.2 °F 38% 30.37 in 10.0 mi SE 4.6 mph - N/A   Clear
9:15 PM 53.6 °F - 30.2 °F 41% 30.36 in 10.0 mi ESE 3.5 mph - N/A   Clear
9:35 PM 53.6 °F - 30.2 °F 41% 30.37 in 10.0 mi ESE 5.8 mph - N/A   Clear
9:55 PM 51.8 °F - 30.2 °F 44% 30.37 in 10.0 mi SSE 5.8 mph - N/A   Clear
10:15 PM 51.8 °F - 30.2 °F 44% 30.37 in 10.0 mi SE 6.9 mph - N/A   Clear
10:35 PM 51.8 °F - 30.2 °F 44% 30.37 in 10.0 mi ESE 6.9 mph - N/A   Clear
10:55 PM 50.0 °F - 30.2 °F 47% 30.38 in 10.0 mi ESE 5.8 mph - N/A   Clear
11:15 PM 50.0 °F - 28.4 °F 43% 30.38 in 10.0 mi East 6.9 mph - N/A   Clear
11:35 PM 50.0 °F - 30.2 °F 47% 30.38 in 10.0 mi ESE 6.9 mph - N/A   Clear
11:55 PM 48.2 °F - 30.2 °F 50% 30.38 in 10.0 mi ESE 8.1 mph - N/A   Clear